Find Starlink 1068

NORAD ID: 44772 Int'l Des: 2019-074 Owner: SPXS Country: US Constellation: starlink operational
LEOCIRCULAR

当前视图

正在加载3D地球...

About Starlink 1068

Starlink 1068 (NORAD 44772) is a starlink constellation satellite (v1.0) launched Nov 11, 2019 by SPXS of US. It operates in LEO, CIRCULAR orbit with a mass of 260.00 kg.

即将过境

Passes for default location (London). Set your location on the main map for personalized predictions.

高度历史

Loading altitude history...

两行轨道根数

1 44772U 19074BM 26238.00001157 .00226889 30220-4 69580-3 0 9997
2 44772 53.0335 55.6353 0001383 208.2341 248.2785 15.91481348 5934
Epoch: Aug 26, 2026 • Age: 6 hours

当前状态

高度 304.0 km
远地点 / 近地点 N/A
速度 7.73 km/s
星下点 48.52°N, 49°E
发射日期 Nov 11, 2019
运行时间 6.7 years
类型 internet

技术详情

分类 Payload
质量 260.00 kg
干质量 248.00 kg
总质量 260.00 kg
长度 0.20 m
直径 2.80 m
跨度 9.00 m
形状 Box + pan
制造商 SPXS
平台类型 Starlink
阶段状态 In Orbit
所有者/国家 SPXS/US

Most Searched